Station VAKF1 - 8723214 - Virginia Key, FL Image indicating link to RSS feed of recent meteorological observations for station VAKF1


Conditions at VAKF1 as of
(7:48 pm EDT)
2348 GMT on 06/13/2024:
     

Click on the graph icon in the table below to see a time series plot of the last five days of that observation.

5-day plot - Wind Direction Wind Direction (WDIR):NNE ( 30 deg true )
5-day plot - Wind Speed Wind Speed (WSPD): 1.9 kts
5-day plot - Wind Gust Wind Gust (GST): 2.9 kts
5-day plot - Atmospheric Pressure Atmospheric Pressure (PRES):29.90 in
5-day plot - Air Temperature Air Temperature (ATMP): 76.8 °F
5-day plot - Water Temperature Water Temperature (WTMP): 83.1 °F
5-day plot - Wind Speed at 10 Meters Wind Speed at 10 meters (WSPD10M): 1.9 kts
5-day plot - Wind Speed at 20 Meters Wind Speed at 20 meters (WSPD20M): 1.9 kts
5-day plot -  Wind Speed, Wind Gust and Atmospheric Pressure Combined plot of Wind Speed, Gust, and Air Pressure
NOS Water Level Observation Network Water Level
Previous observations
TIME
(EDT)
5-day plot - Wind Direction
WDIR
 
5-day plot - Wind Speed
WSPD
kts
5-day plot - Wind Gust
GST
kts
5-day plot - Wave Height
WVHT
ft
5-day plot - Dominant Wave Period
DPD
sec
5-day plot - Average Wave Period
APD
sec
5-day plot - Mean Wave Direction
MWD
 
5-day plot - Atmospheric Pressure
PRES
in
5-day plot - Pressure Tendency
PTDY
in
5-day plot - Air Temperature
ATMP
°F
5-day plot - Water Temperature
WTMP
°F
5-day plot - Dew Point
DEWP
°F
5-day plot - Salinity
SAL
psu
5-day plot - Visibility
VIS
nmi
5-day plot - Tide (above MLLW)
TIDE
ft
2024-06-13 07:42 pmNNE 1.0 1.9----29.90- 76.8 83.1----
2024-06-13 07:36 pm N 1.9 2.9----29.91- 76.6 83.1----
2024-06-13 07:30 pmNNE 1.9 2.9----29.91- 76.5 83.1----
2024-06-13 07:24 pm N 1.9 2.9----29.91- 76.3 83.1----
2024-06-13 07:00 pm W 7.0 15.0----29.92+0.01- 83.1----
2024-06-13 06:54 pm W 8.9 12.0----29.92-- 83.1----
2024-06-13 06:48 pm NW 5.1 11.1----29.91-------
2024-06-13 06:42 pm W 5.1 8.9----29.91-------
2024-06-13 06:36 pmWNW 6.0 8.9----29.90-------
2024-06-13 06:30 pmWNW 6.0 9.9----29.89- 79.0 83.1----
2024-06-13 06:24 pmWNW 9.9 15.0----29.89- 79.9 83.1----
2024-06-13 06:18 pm W 4.1 8.9----29.89- 82.6 83.1----
2024-06-13 06:12 pmWSW 4.1 7.0----29.89- 82.6 83.1----
2024-06-13 06:06 pmWSW 6.0 8.9----29.90- 82.6 83.1----
2024-06-13 06:00 pm SW 8.0 8.9----29.90-0.01- 83.1----
2024-06-13 05:54 pmSSW 8.9 9.9----29.90-- 83.1----
2024-06-13 05:48 pmSSW 8.9 11.1----29.90- 82.8 83.1----
2024-06-13 05:42 pm SW 8.9 9.9----29.91- 82.9 83.1----
2024-06-13 05:36 pmWSW 6.0 8.9----29.91- 82.6 83.1----
2024-06-13 05:30 pmWSW 7.0 8.0----29.91- 82.8 83.1----
2024-06-13 05:24 pmWSW 6.0 8.9----29.90- 83.3 83.1----
2024-06-13 05:18 pmWSW 8.0 9.9----29.90-- 83.1----
2024-06-13 05:12 pmWSW 8.9 9.9----29.90-- 83.1----
2024-06-13 05:06 pmWSW 8.0 11.1----29.90-- 83.1----
2024-06-13 05:00 pmWSW 8.9 11.1----29.90-0.01 83.7 83.1----
2024-06-13 04:54 pm SW 8.0 9.9----29.90- 83.7 83.1----
2024-06-13 04:48 pm SW 8.0 8.0----29.90- 83.3 83.1----
2024-06-13 04:42 pmSSW 7.0 8.9----29.90- 83.5 83.1----
2024-06-13 04:36 pmSSW 8.0 8.9----29.90- 83.5 83.1----
2024-06-13 04:30 pmSSW 7.0 8.0----29.90- 83.7 83.1----
2024-06-13 04:24 pm S 6.0 7.0----29.90- 83.7 83.1----
2024-06-13 04:18 pm S 6.0 8.0----29.90-- 83.1----
2024-06-13 04:12 pm S 6.0 8.0----29.90-- 83.1----
2024-06-13 04:06 pm S 5.1 8.0----29.90-- 83.1----
2024-06-13 04:00 pm S 7.0 8.0----29.90-0.02 83.8 82.9----
2024-06-13 03:54 pm S 7.0 8.9----29.90- 83.8 82.9----
2024-06-13 03:48 pm S 7.0 8.0----29.91- 83.8 82.9----
2024-06-13 03:42 pm S 7.0 8.0----29.91- 84.0 82.9----
2024-06-13 03:36 pm S 7.0 8.9----29.91- 84.0 83.1----
2024-06-13 03:30 pm S 6.0 8.0----29.91-- 83.1----
2024-06-13 03:24 pm S 6.0 8.0----29.91-- 83.1----
2024-06-13 03:18 pm S 7.0 8.9----29.92- 83.8 83.1----
2024-06-13 03:12 pm S 6.0 8.0----29.92- 83.8 83.1----
2024-06-13 03:06 pm S 6.0 8.0----29.91- 83.8 83.1----
2024-06-13 03:00 pm S 6.0 8.0----29.91- 83.8 83.1----
2024-06-13 02:54 pm S 6.0 8.0----29.91- 83.8 83.1----
2024-06-13 02:48 pm S 6.0 8.0----29.91-- 83.1----
2024-06-13 02:42 pm S 6.0 8.0----29.91-- 83.1----
2024-06-13 02:36 pm S 6.0 9.9----29.90-- 83.1----
2024-06-13 02:30 pm S 6.0 8.9----29.90-- 83.1----
2024-06-13 02:24 pm S 8.0 11.1----29.90-- 83.1----
2024-06-13 02:18 pm S 9.9 12.0----29.90- 83.7 83.1----
2024-06-13 02:12 pm S 11.1 13.0----29.90- 83.7 83.1----
2024-06-13 02:06 pm S 11.1 12.0----29.91- 83.7 83.1----
2024-06-13 02:00 pm S 9.9 12.0----29.91-0.03- 83.1----
2024-06-13 01:54 pmSSW 11.1 13.0----29.91-- 83.1----
2024-06-13 01:48 pm S 12.0 14.0----29.91-- 83.1----
2024-06-13 01:42 pm S 12.0 14.0----29.91-- 83.1----
2024-06-13 01:36 pmSSW 9.9 13.0----29.92-- 82.9----
2024-06-13 01:30 pm--------- 82.2 82.9----
2024-06-13 01:24 pm--------- 83.7 82.9----
2024-06-13 01:18 pm S 11.1 15.0----29.92- 83.8 82.9----
2024-06-13 01:12 pm S 11.1 15.9----29.92- 83.8 82.9----
2024-06-13 01:06 pm S 12.0 15.0----29.92- 83.8 82.9----
2024-06-13 01:00 pm-------29.92-0.01 83.7 82.8----
2024-06-13 12:54 pm-------29.92- 83.7 82.8----
2024-06-13 12:48 pm S 11.1 14.0----29.92- 83.5-----
2024-06-13 12:42 pm S 11.1 13.0----29.92- 83.5-----
2024-06-13 12:36 pm S 11.1 13.0----29.93- 83.5-----
2024-06-13 12:30 pm-------29.93- 83.5 82.8----
2024-06-13 12:24 pm-------29.93- 83.5 82.8----
2024-06-13 12:18 pm S 11.1 13.0----29.93-- 82.8----
2024-06-13 12:12 pm S 9.9 13.0----29.93-- 82.6----
2024-06-13 12:06 pm S 12.0 13.0----29.93-- 82.6----
2024-06-13 12:00 pm S 11.1 12.0------ 83.1 82.6----
2024-06-13 11:54 am S 9.9 12.0------ 82.9 82.6----
2024-06-13 11:48 am S 11.1 13.0----29.93-- 82.6----
2024-06-13 11:42 am S 8.9 11.1----29.93-- 82.6----
2024-06-13 11:36 am S 8.9 12.0----29.93-- 82.6----
2024-06-13 11:30 am S 8.9 12.0----29.93-- 82.6----
2024-06-13 11:24 am S 8.9 12.0----29.94-- 82.6----
2024-06-13 11:18 am S 11.1 12.0----29.93- 82.8 82.6----
2024-06-13 11:12 am S 11.1 12.0----29.93- 82.6 82.6----
2024-06-13 11:06 am S 11.1 13.0----29.93- 82.8 82.6----
2024-06-13 11:00 am S 9.9 12.0----29.93+0.01 82.8 82.6----
2024-06-13 10:54 am S 9.9 12.0----29.93- 82.8 82.6----
2024-06-13 10:48 am S 8.0 12.0----29.93- 82.8 82.6----
2024-06-13 10:42 am S 8.9 12.0----29.93- 82.8 82.4----
2024-06-13 10:36 am S 8.9 11.1----29.93- 82.6 82.4----
2024-06-13 10:30 am S 8.9 12.0----29.93-- 82.4----
2024-06-13 10:24 am S 9.9 13.0----29.93-- 82.4----
2024-06-13 10:18 am S 9.9 11.1----29.93- 82.6 82.4----
2024-06-13 10:12 am S 8.9 14.0----29.93- 82.6 82.4----
2024-06-13 10:06 am S 9.9 11.1----29.93- 82.4 82.4----
2024-06-13 10:00 am S 9.9 13.0----29.93+0.02 82.4 82.4----
2024-06-13 09:54 am S 12.0 14.0----29.93- 82.4 82.4----
2024-06-13 09:48 am S 11.1 13.0----29.93- 82.4 82.4----
2024-06-13 09:42 am S 9.9 12.0----29.93- 82.4 82.4----
2024-06-13 09:36 am S 11.1 14.0----29.93- 82.6 82.4----
2024-06-13 09:30 am S 9.9 13.0----29.93- 82.6 82.4----
2024-06-13 09:24 am S 11.1 13.0----29.93- 82.4 82.4----
2024-06-13 09:18 am S 11.1 14.0----29.93- 82.4 82.4----
2024-06-13 09:12 am S 11.1 14.0----29.93- 82.4 82.4----
2024-06-13 09:06 am S 9.9 12.0----29.93- 82.6 82.4----
2024-06-13 09:00 am S 9.9 13.0----29.93+0.05 82.6 82.4----
2024-06-13 08:54 am S 9.9 11.1----29.93- 82.2 82.4----
2024-06-13 08:48 am S 7.0 8.9----29.92- 81.9 82.4----
2024-06-13 08:42 am S 6.0 7.0----29.92- 81.9 82.4----
2024-06-13 08:36 amSSE 6.0 8.9----29.92- 81.7 82.4----
2024-06-13 08:30 amSSE 6.0 8.0----29.92- 81.5 82.4----
2024-06-13 08:24 amSSE 5.1 7.0----29.92- 81.5 82.4----
2024-06-13 08:18 amSSE 6.0 7.0----29.92- 81.5 82.4----
2024-06-13 08:12 amSSE 7.0 8.0----29.92- 81.5 82.4----
2024-06-13 08:06 am S 6.0 9.9----29.92- 81.5 82.4----
2024-06-13 08:00 am S 8.0 11.1----29.92+0.04 81.7 82.4----
2024-06-13 07:54 am S 8.9 12.0----29.92- 81.7 82.4----
2024-06-13 07:48 am S 9.9 13.0----29.91-- 82.4----
2024-06-13 07:42 am S 8.0 9.9----29.91-- 82.4----
2024-06-13 07:36 am S 8.0 11.1----29.91-- 82.4----
2024-06-13 07:30 amSSE 8.0 12.0----29.91- 81.5 82.4----
2024-06-13 07:24 amSSE 9.9 13.0----29.90- 81.3 82.4----
2024-06-13 07:18 am S 11.1 13.0----29.91- 81.3 82.4----
2024-06-13 07:12 am S 9.9 12.0----29.91- 81.3 82.4----
2024-06-13 07:06 am S 11.1 12.0----29.91- 81.1 82.4----
2024-06-13 07:00 amSSW 9.9 13.0----29.91+0.02 81.3 82.4----
2024-06-13 06:54 amSSW 11.1 13.0----29.91- 81.1 82.6----
2024-06-13 06:48 am S 11.1 13.0----29.90- 81.0 82.6----
2024-06-13 06:42 am S 8.9 13.0----29.89- 81.0 82.6----
2024-06-13 06:36 am S 12.0 15.0----29.89- 81.1 82.6----
2024-06-13 06:30 am S 12.0 15.9----29.89- 81.1 82.6----
2024-06-13 06:24 am S 13.0 15.0----29.89- 81.1 82.6----
2024-06-13 06:18 am S 11.1 14.0----29.89- 81.0 82.6----
2024-06-13 06:12 am S 13.0 15.9----29.89- 80.8 82.6----
2024-06-13 06:06 am S 12.0 15.9----29.88- 80.6 82.6----
2024-06-13 06:00 am S 14.0 17.1----29.88-0.02 80.6 82.6----
2024-06-13 05:54 am S 12.0 17.1----29.88- 80.6 82.6----
2024-06-13 05:48 am S 13.0 17.1----29.88- 80.6 82.6----
2024-06-13 05:42 amSSE 9.9 12.0----29.88- 80.4 82.6----
2024-06-13 05:36 am S 12.0 15.0----29.88- 80.2 82.6----
2024-06-13 05:30 am S 13.0 15.9----29.87- 80.2 82.6----
2024-06-13 05:24 am S 11.1 17.1----29.87- 79.9 82.8----
2024-06-13 05:18 amSSE 13.0 15.9----29.87- 79.9 82.8----
2024-06-13 05:12 amSSE 11.1 15.9----29.87- 79.5 82.8----
2024-06-13 05:06 am S 12.0 15.9----29.87- 79.5 82.8----
2024-06-13 05:00 am S 14.0 17.1----29.88-0.04 79.7 82.8----
2024-06-13 04:54 amSSE 12.0 15.9----29.88- 79.5 82.8----
2024-06-13 04:48 am S 13.0 15.9----29.88- 79.3 82.8----
2024-06-13 04:42 amSSE 15.0 18.1----29.88- 79.3 82.8----
2024-06-13 04:36 amSSE 14.0 19.0----29.88- 79.2 82.8----
2024-06-13 04:30 amSSE 12.0 15.9----29.88- 79.2 82.8----
2024-06-13 04:24 am S 13.0 18.1----29.89- 79.3 82.8----
2024-06-13 04:18 amSSE 15.9 19.0----29.89- 79.3 82.8----
2024-06-13 04:12 amSSE 15.0 18.1----29.88- 79.5 82.8----
2024-06-13 04:06 am S 14.0 18.1----29.88- 79.3 82.8----
2024-06-13 04:00 am S 14.0 19.0----29.89-0.06 79.3 82.8----
2024-06-13 03:54 amSSE 12.0 18.1----29.88- 79.2 82.8----
2024-06-13 03:48 am S 15.0 18.1----29.88- 79.2 82.8----
2024-06-13 03:42 am S 15.0 20.0----29.88- 79.2 82.8----
2024-06-13 03:36 am S 15.9 19.0----29.88- 79.2 82.8----
2024-06-13 03:30 am S 13.0 19.0----29.88- 79.2 82.8----
2024-06-13 03:24 am S 14.0 18.1----29.88- 79.3 82.8----
2024-06-13 03:18 am S 15.9 19.0----29.89- 79.3 82.8----
2024-06-13 03:12 am S 14.0 21.0----29.89- 79.3 82.8----
2024-06-13 03:06 am S 17.1 21.0----29.90- 79.5 82.8----
2024-06-13 03:00 am S 15.0 21.0----29.90-0.07 79.2 82.8----
2024-06-13 02:54 am S 15.9 21.0----29.90- 79.3 82.8----
2024-06-13 02:48 am S 17.1 21.0----29.90-- 82.8----
2024-06-13 02:42 am S 17.1 21.0----29.90-- 82.8----
2024-06-13 02:36 am S 17.1 20.0----29.90-- 82.8----
2024-06-13 02:30 am S 15.0 19.0----29.90- 79.2 82.8----
2024-06-13 02:24 am S 15.0 17.1----29.90- 79.2 82.8----
2024-06-13 02:18 am S 13.0 15.9----29.91- 79.0 82.8----
2024-06-13 02:12 am S 11.1 17.1----29.91- 79.0 82.8----
2024-06-13 02:06 am S 14.0 19.0----29.92- 79.2 82.8----
2024-06-13 02:00 am S 11.1 15.0----29.92-0.07------
2024-06-13 01:54 am S 12.0 15.0----29.93-------
2024-06-13 01:48 am-------29.93- 79.2 82.9----
2024-06-13 01:42 am-------29.94- 79.2 82.9----
2024-06-13 01:36 am-------29.94- 79.0 82.9----
2024-06-13 01:30 amSSE 14.0 17.1----29.94- 79.3 82.9----
2024-06-13 01:24 amSSE 15.0 21.0----29.95- 79.2 82.9----
2024-06-13 01:18 amSSE 14.0 18.1----29.95- 79.2 82.9----
2024-06-13 01:12 amSSE 15.9 19.0----29.95- 79.2 82.9----
2024-06-13 01:06 am S 14.0 20.0----29.95- 79.2 82.9----
2024-06-13 01:00 am-------29.95- 79.2 82.9----
2024-06-13 12:54 am-------29.96- 79.0 82.9----
2024-06-13 12:48 amSSE 14.0 20.0----29.96- 78.8 83.1----
2024-06-13 12:42 amSSE 14.0 19.0----29.95- 78.8 83.1----
2024-06-13 12:36 amSSE 13.0 15.9----29.95- 78.4 83.1----
2024-06-13 12:30 amSSE 13.0 17.1----29.96- 77.7 83.1----
2024-06-13 12:24 amSSE 15.0 19.0----29.96- 77.5 82.9----
2024-06-13 12:18 amSSE 14.0 18.1----29.96- 77.5 83.1----
2024-06-13 12:12 amSSE 14.0 17.1----29.96- 77.4 83.1----
2024-06-13 12:06 amSSE 12.0 17.1----29.96- 77.0 83.1----
2024-06-13 12:00 amSSE 12.0 15.9----29.97- 77.2 83.1----
2024-06-12 11:54 pmSSE 13.0 15.0----29.98- 77.0 83.1----
2024-06-12 11:48 pmSSE 11.1 14.0----29.98-- 83.1----
2024-06-12 11:42 pm S 9.9 13.0----29.98-- 83.1----
2024-06-12 11:36 pm S 11.1 13.0----29.99-- 83.1----
2024-06-12 11:30 pmSSE 8.9 11.1------------
2024-06-12 11:24 pmSSE 8.0 12.0------------
2024-06-12 11:18 pmSSE 12.0 14.0----29.99-- 83.1----
2024-06-12 11:12 pmSSE 11.1 15.0----29.98-- 83.1----
2024-06-12 11:06 pmSSE 13.0 15.9----29.98-- 83.1----
2024-06-12 11:00 pmSSE 15.0 19.0----29.99+0.02 77.2 83.1----
2024-06-12 10:54 pmSSE 15.0 18.1----29.99- 77.2 83.1----
2024-06-12 10:48 pmSSE 12.0 17.1----29.99- 77.4 83.1----
2024-06-12 10:42 pm S 15.0 19.0----29.99- 77.0 83.1----
2024-06-12 10:36 pmSSE 12.0 15.0----29.98- 77.2 83.1----
2024-06-12 10:30 pmSSE 13.0 15.9----29.99- 77.4 83.3----
2024-06-12 10:24 pm S 14.0 17.1----29.99- 77.2 83.1----
2024-06-12 10:18 pm S 13.0 15.9----29.99- 77.4-----
2024-06-12 10:12 pm S 9.9 13.0----29.99- 77.2-----
2024-06-12 10:06 pm S 9.9 12.0----29.99- 77.2-----
2024-06-12 10:00 pmSSE 9.9 12.0------------
2024-06-12 09:54 pm S 9.9 13.0------------
2024-06-12 09:48 pm S 8.9 12.0----29.98-- 83.3----
2024-06-12 09:42 pm S 11.1 13.0----29.98-- 83.3----
2024-06-12 09:36 pm S 11.1 14.0----29.98-- 83.3----
2024-06-12 09:30 pm S 13.0 15.0----29.98- 77.5 83.3----
2024-06-12 09:24 pm S 12.0 14.0----29.98- 77.5 83.3----
2024-06-12 09:18 pm S 13.0 14.0----29.98-- 83.3----
2024-06-12 09:12 pmSSW 13.0 15.0----29.98-- 83.5----
2024-06-12 09:06 pmSSW 12.0 14.0----29.98-- 83.5----
2024-06-12 09:00 pmSSW 12.0 14.0------- 83.5----
2024-06-12 08:54 pmSSW 12.0 13.0------- 83.5----
2024-06-12 08:48 pmSSW 12.0 14.0----29.97-- 83.5----
2024-06-12 08:42 pmSSW 11.1 13.0----29.97-- 83.5----
2024-06-12 08:36 pmSSW 11.1 12.0----29.97-- 83.7----
2024-06-12 08:30 pm S 11.1 12.0----29.96-- 83.7----
2024-06-12 08:24 pm S 9.9 12.0----29.95-- 83.7----
2024-06-12 08:18 pm S 9.9 12.0----29.96- 77.5 83.7----
2024-06-12 08:12 pm S 11.1 13.0----29.96- 77.4 83.8----
2024-06-12 08:06 pm S 12.0 15.0----29.96- 77.5 83.8----
2024-06-12 08:00 pm S 11.1 13.0----29.96+0.06- 83.8----
2024-06-12 07:54 pm S 12.0 15.0----29.97-- 83.8----